"Pseudo-MPEC" for C1G1MZ5

Created 2026 Sep 5 10:35:05 UT using Find_Orb

Click here for an explanation of pseudo-MPECs

 
 Astrometry: 
     C1G1MZ5*1C2026 09 05.30737722 05 34.886+03 26 14.10   ~958K 22.35GVNEOCPV00
     C1G1MZ5 1C2026 09 05.31857322 05 34.789+03 29 31.74   ~958K 22.84GVNEOCPV00
     C1G1MZ5 1C2026 09 05.32415222 05 34.746+03 31 08.54   ~958K 21.48GVNEOCPV00
     C1G1MZ5 KC2026 09 05.35879722 05 32.514+03 40 51.00   ~959K 21.4 GWNEOCPH01
     C1G1MZ5 KC2026 09 05.36245822 05 32.668+03 41 55.94   ~959K 21.3 GWNEOCPH01
     C1G1MZ5  C2026 09 05.37231522 05 33.176+03 44 51.35   ~959K 21.6 GWNEOCPH01
     C1G1MZ5 KC2026 09 05.38032922 05 33.682+03 47 14.35   ~959K 21.6 GWNEOCPH01

Station data:
(H01) Magdalena Ridge Observatory, Socorro  (N33.984833 W107.189333)  US/New
   Mexico.  Observers W. H. Ryan, E. V. Ryan. Measurer W. H. Ryan. 2.4-m
   f/8.9 reflector + CCD.
(V00) Kitt Peak-Bok  (N31.963125 W111.600190)  US/Arizona. Measurers T.
   Beuden, V. F. Carvajal, D. Fay, J. B. Fazekas, D. C. Fuls, A. R. Gibbs, A.
   D. Grauer, H. Gröller, J. K. Hogan, R. A. Kowalski, S. M. Larson, G. J.
   Leonard, D. Rankin, R. L. Seaman, F. C. Shelly, K. W. Wierzchoś. 2.25-m
   reflector + 4x4K mosaic CCD.

Orbital elements:  C1G1MZ5
   Perihelion 2026 Oct 26.454697 +/- 1.27 TT = 10:54:45.8 (JD 2461339.954697)
Epoch 2026 Sep  5.0 TT = JDT 2461288.5   Earth MOID: 0.0034      AutoNEOCP
M 319.014380130 +/- 0.34            (J2000 ecliptic)
n   0.796537963 +/- 0.0166          Peri.   68.697098 +/- 8
a   1.152564033 +/- 0.016           Node   329.848709 +/- 5.5
e   0.17514746 +/- 0.0225           Incl.    0.657348 +/- 0.28
P   1.237/451.947d         H 31.15  G  0.15   U 10.0
q 0.950695359 +/- 0.0128    Q 1.354432706 +/- 0.0448
From 7 observations 2026 Sept. 5 (1.8 hr); mean residual 0".38
Residuals in arcseconds: 
260905 V00  .00   .64-    260905 H01  .27+  .38-    260905 H01  .18-  .32+    
260905 V00  .06+  1.0+    260905 H01  .12+  .32-    
260905 V00  .18-  .08-    260905 H01  .07-  .03+    

Ephemerides (geocentric):
Date (UTC) HH   RA             Dec           delta  r     elong  mag " sig PA
---- --------  ------------   ------------  ------ ------ -----  --- --------
2026 09 05 11  22 06 30.540   +04 18 36.02  .00987 1.0177 163.4 22.0 8.19 117
2026 09 05 12  22 06 43.673   +04 31 40.78  .00979 1.0176 163.3 22.0 13.8 147
2026 09 05 13  22 06 57.048   +04 44 59.36  .00970 1.0175 163.2 22.0 23.1 162
2026 09 05 14  22 07 10.672   +04 58 32.12  .00961 1.0174 163.0 22.0 35.5 170
2026 09 05 15  22 07 24.552   +05 12 19.39  .00953 1.0173 162.9 22.0 51.1 175
2026 09 05 16  22 07 38.694   +05 26 21.56  .00944 1.0172 162.8 22.0 69.7 179
2026 09 05 17  22 07 53.106   +05 40 38.99  .00936 1.0171 162.6 22.0 91.6   1
2026 09 05 18  22 08 07.797   +05 55 12.08  .00927 1.0170 162.5 21.9  117   3
2026 09 05 19  22 08 22.773   +06 10 01.23  .00919 1.0169 162.3 21.9  145   4
2026 09 05 20  22 08 38.044   +06 25 06.85  .00910 1.0168 162.2 21.9  178   5
2026 09 05 21  22 08 53.618   +06 40 29.36  .00902 1.0167 162.0 21.9  214   6
2026 09 05 22  22 09 09.505   +06 56 09.22  .00893 1.0166 161.8 21.9  254   7
2026 09 05 23  22 09 25.712   +07 12 06.87  .00885 1.0165 161.7 21.9  298   7
2026 09 06 00  22 09 42.252   +07 28 22.77  .00877 1.0164 161.5 21.8  347   8
2026 09 06 01  22 09 59.133   +07 44 57.43  .00868 1.0163 161.3 21.8  400   8
2026 09 06 02  22 10 16.367   +08 01 51.32  .00860 1.0162 161.1 21.8  458   9
2026 09 06 03  22 10 33.964   +08 19 04.97  .00851 1.0161 161.0 21.8  521   9
2026 09 06 04  22 10 51.936   +08 36 38.91  .00843 1.0160 160.8 21.8  589  10
2026 09 06 05  22 11 10.295   +08 54 33.67  .00835 1.0159 160.6 21.8  663  10
2026 09 06 06  22 11 29.054   +09 12 49.84  .00827 1.0158 160.4 21.8  742  10
2026 09 06 07  22 11 48.225   +09 31 27.99  .00818 1.0157 160.1 21.7  827  10
2026 09 06 08  22 12 07.824   +09 50 28.71  .00810 1.0157 159.9 21.7  919  11
2026 09 06 09  22 12 27.863   +10 09 52.64  .00802 1.0156 159.7 21.7 1017  11
2026 09 06 10  22 12 48.358   +10 29 40.40  .00794 1.0155 159.5 21.7 1122  11
2026 09 06 11  22 13 09.324   +10 49 52.65  .00785 1.0154 159.2 21.7 1234  11
2026 09 06 12  22 13 30.779   +11 10 30.09  .00777 1.0153 159.0 21.7 1353  11
2026 09 06 13  22 13 52.739   +11 31 33.40  .00769 1.0152 158.7 21.6 1481  11
2026 09 06 14  22 14 15.222   +11 53 03.31  .00761 1.0151 158.5 21.6 1616  12
2026 09 06 15  22 14 38.248   +12 15 00.56  .00753 1.0150 158.2 21.6 1760  12
2026 09 06 16  22 15 01.835   +12 37 25.91  .00745 1.0149 157.9 21.6 1913  12
2026 09 06 17  22 15 26.005   +13 00 20.17  .00737 1.0148 157.7 21.6 2076  12
2026 09 06 18  22 15 50.779   +13 23 44.14  .00729 1.0147 157.4 21.6 2248  12
2026 09 06 19  22 16 16.181   +13 47 38.67  .00721 1.0146 157.1 21.6 2430  12
2026 09 06 20  22 16 42.234   +14 12 04.60  .00713 1.0145 156.8 21.5 2623  12
2026 09 06 21  22 17 08.964   +14 37 02.84  .00706 1.0144 156.4 21.5 2827  12
2026 09 06 22  22 17 36.397   +15 02 34.30  .00698 1.0143 156.1 21.5 3042  13
2026 09 06 23  22 18 04.562   +15 28 39.91  .00690 1.0142 155.8 21.5 3270  13
2026 09 07 00  22 18 33.488   +15 55 20.63  .00682 1.0141 155.4 21.5 3510  13
2026 09 07 01  22 19 03.206   +16 22 37.47  .00675 1.0140 155.1 21.5 3764  13
2026 09 07 02  22 19 33.750   +16 50 31.43  997821 1.0139 154.7 21.5 4031  13
2026 09 07 03  22 20 05.153   +17 19 03.57  986473 1.0138 154.3 21.4 4313  13
2026 09 07 04  22 20 37.453   +17 48 14.94  975194 1.0137 153.9 21.4 4609  13
2026 09 07 05  22 21 10.689   +18 18 06.64  963988 1.0136 153.5 21.4 4922  13
2026 09 07 06  22 21 44.902   +18 48 39.80  952857 1.0135 153.1 21.4 5250  13
2026 09 07 07  22 22 20.135   +19 19 55.55  941804 1.0134 152.7 21.4 5596  13
2026 09 07 08  22 22 56.434   +19 51 55.07  930831 1.0133 152.2 21.4 5959  14
2026 09 07 09  22 23 33.849   +20 24 39.55  919942 1.0132 151.8 21.4 6340  14
2026 09 07 10  22 24 12.431   +20 58 10.19  909138 1.0131 151.3 21.4 6741  14